Theta_e
316 314 312 311 310 309 309 308 306 307 306 308 308 307 306 308 309 309 313 317 322 321 321 320 318 317 317 316 314 314 313 313 312 311 311 311 310 310 310 310 309 309 309
319 316 313 313 310 308 309 308 307 306 304 305 305 305 305 304 306 306 307 311 320 321 319 319 317 316 315 315 314 312 312 312 311 310 310 309 309 309 308 308 308 307 307
320 317 314 313 312 312 312 307 307 305 304 301 301 302 303 302 302 303 303 303 308 314 319 318 317 315 314 314 313 311 311 310 310 309 308 308 307 307 307 307 306 306 306
322 318 315 313 313 313 312 308 303 302 301 300 297 296 297 299 299 300 300 300 300 300 308 316 314 314 313 312 312 310 310 309 308 307 307 306 306 305 305 305 305 305 304
326 320 317 315 314 312 310 306 303 302 298 296 295 294 292 294 295 296 298 299 300 296 296 306 309 313 312 312 311 310 309 308 307 306 305 304 304 304 304 303 303 303 303
328 323 320 316 313 311 308 305 302 299 297 295 293 291 290 291 290 293 294 295 295 294 293 294 295 298 310 311 311 310 308 307 305 304 304 303 302 302 302 302 302 302 302
329 325 321 316 313 311 308 305 300 296 291 293 290 290 289 289 289 288 290 292 292 291 291 291 292 293 298 308 309 309 308 307 305 304 303 301 301 300 300 300 301 301 301
330 327 323 315 314 311 307 303 301 296 293 293 290 289 286 287 287 286 286 288 287 289 289 290 289 290 291 291 294 307 307 306 305 303 302 300 299 298 298 299 300 300 300
328 327 324 318 314 312 307 303 301 299 293 291 292 292 286 286 284 284 284 285 285 286 287 288 287 288 289 289 296 300 304 304 304 302 301 299 297 297 297 298 299 299 300
323 325 324 319 315 313 309 305 304 302 299 292 290 293 293 290 286 281 285 286 284 285 286 286 286 287 287 287 291 293 298 301 300 300 298 297 296 296 297 297 298 299 299
313 322 322 318 315 313 311 307 304 302 301 299 295 291 292 289 288 284 282 281 282 286 286 285 286 286 287 287 287 290 296 297 297 296 296 295 294 295 296 296 297 298 299
308 310 316 318 317 315 312 309 305 303 302 301 298 298 295 294 288 286 283 282 283 285 286 285 285 285 286 286 288 290 294 295 295 294 294 293 293 294 294 295 296 297 298
304 307 312 314 315 315 314 311 306 304 303 301 301 298 299 299 294 292 288 283 283 284 284 285 285 285 285 286 287 289 292 294 294 294 293 293 293 294 293 294 295 296 297
308 307 307 309 312 313 313 312 309 306 304 303 302 299 300 299 297 292 290 285 281 281 282 284 286 285 285 285 286 290 286 292 292 293 292 292 293 294 293 294 294 295 296
306 302 305 305 306 308 311 311 308 305 304 302 301 300 299 300 298 295 290 288 293 284 280 283 282 285 285 285 285 287 284 288 291 292 292 292 292 293 293 293 293 294 295
303 301 302 303 305 307 308 308 307 305 303 302 301 300 299 299 296 295 292 290 290 294 289 284 283 284 285 285 285 285 284 285 288 291 291 291 291 292 292 292 293 293 293
301 302 301 304 304 305 305 305 305 304 300 300 300 298 297 298 297 294 293 291 289 288 288 281 282 284 284 284 283 285 284 283 283 288 289 290 290 290 291 291 292 292 292
298 301 298 301 302 302 302 302 301 301 298 297 297 297 296 296 295 295 292 288 288 286 284 280 280 281 282 283 282 283 281 282 281 284 287 289 289 290 290 291 291 290 290
297 296 295 297 298 299 299 299 301 300 298 298 298 296 296 295 292 291 288 288 286 284 283 282 279 280 280 281 280 280 280 280 281 283 287 288 289 289 290 290 290 289 289
295 294 292 295 294 295 295 296 296 295 295 295 295 295 294 291 292 288 286 286 284 283 282 283 280 279 279 279 280 279 278 280 279 280 283 284 285 286 287 288 288 287 286
293 293 291 289 289 288 290 289 290 291 292 292 290 290 290 289 289 288 286 285 284 284 283 281 279 278 278 278 278 279 278 279 279 280 280 280 280 280 281 283 283 284 284
289 288 288 288 287 289 291 292 290 288 288 288 288 286 286 285 287 289 289 288 286 284 282 279 279 278 279 280 280 280 279 277 277 280 279 278 279 278 279 279 283 284 285
287 286 286 285 285 285 290 292 291 286 286 286 286 284 284 284 285 285 288 287 287 288 285 282 280 281 280 282 281 279 279 279 278 278 277 275 278 277 279 279 283 284 284
283 283 281 281 281 282 289 290 290 285 284 284 284 284 284 283 283 284 284 283 283 284 285 284 285 284 284 283 283 282 281 280 278 278 278 274 276 275 277 277 281 281 280
278 277 279 280 283 283 287 289 288 283 283 283 283 283 283 282 285 286 283 282 282 283 287 288 286 287 287 286 284 281 277 276 275 275 278 275 274 272 273 273 274 277 276
278 281 283 283 283 283 286 288 286 282 281 281 281 282 283 283 287 287 282 282 281 282 282 283 283 285 286 285 286 282 280 277 276 274 275 274 271 270 268 269 271 270 269
Wind_Speed
5 4 4 4 3 3 4 4 4 4 5 5 5 6 5 5 5 2 2 5 11 13 12 12 12 13 13 13 13 13 13 14 14 14 14 15 14 15 15 15 16 16 17
7 7 6 5 4 4 4 4 5 4 4 4 5 5 5 4 6 4 2 5 8 11 12 12 11 11 11 11 11 11 12 12 13 12 13 13 13 13 13 14 14 14 15
10 9 7 7 6 5 6 4 4 4 5 4 5 5 4 5 5 5 4 3 4 6 9 13 11 10 10 10 10 10 10 11 11 11 11 11 11 11 11 12 12 13 13
13 10 9 8 7 5 5 5 6 3 4 5 4 3 3 3 5 6 5 2 4 3 5 5 10 11 10 10 10 9 10 9 10 9 9 8 8 8 9 9 10 11 11
13 11 9 9 9 7 6 5 3 5 6 4 4 3 3 3 3 3 5 3 4 4 3 6 6 9 11 11 11 10 9 9 9 8 7 7 6 6 7 7 8 9 9
14 12 9 8 10 8 7 6 8 3 4 6 5 3 2 1 2 3 4 3 3 5 3 4 3 2 9 12 12 11 10 9 8 8 7 5 4 4 4 5 6 7 8
14 13 9 10 10 10 11 11 5 7 2 4 5 2 1 1 3 4 3 4 5 5 5 4 3 2 3 13 12 12 12 11 10 8 7 5 3 2 2 3 5 7 8
13 13 12 11 12 9 10 9 11 5 3 9 5 3 2 2 3 5 3 5 6 4 5 5 5 4 4 3 4 14 13 12 11 10 8 6 3 1 2 3 5 7 9
12 13 12 11 12 11 11 14 13 15 7 9 8 7 4 7 2 3 7 6 6 5 5 5 6 5 5 4 6 9 14 13 13 11 9 7 5 3 4 5 6 8 10
8 11 12 12 13 10 11 13 13 12 11 10 3 7 2 4 5 4 3 7 6 8 8 7 8 7 6 5 8 8 11 15 14 13 11 8 6 5 6 6 7 9 10
7 8 10 12 12 11 12 13 14 14 11 9 11 3 4 2 2 2 3 3 4 8 8 9 9 8 9 7 6 9 17 16 15 14 12 9 7 6 7 7 8 9 10
6 8 9 11 12 12 12 13 15 17 16 14 11 9 7 9 7 4 2 3 6 6 9 8 9 9 8 8 10 15 19 18 17 15 13 11 9 9 8 8 9 10 11
6 9 12 9 9 11 12 12 14 15 16 14 15 13 10 10 3 4 3 2 3 3 5 8 8 8 8 7 8 14 18 18 17 16 13 12 10 12 8 8 9 10 12
9 8 9 10 12 9 9 11 11 12 14 14 18 14 12 10 8 6 5 6 2 4 3 4 9 10 9 8 10 17 8 18 18 17 15 13 11 14 10 10 10 11 13
6 6 9 10 10 11 13 12 10 12 13 14 15 15 13 10 8 8 6 5 9 5 9 8 5 12 10 9 10 10 9 15 19 18 16 15 12 14 11 10 11 12 14
7 8 9 10 10 12 12 12 11 11 13 11 11 14 13 11 9 9 9 10 7 10 7 7 8 5 10 8 10 12 10 14 18 18 16 16 14 14 12 12 12 13 14
7 10 10 11 12 12 12 12 13 12 13 13 12 13 15 14 9 9 9 8 8 8 11 1 2 3 9 11 10 9 8 8 6 16 15 14 16 13 13 14 13 14 14
7 9 8 11 12 12 11 13 13 11 12 13 13 13 14 9 13 10 8 9 9 9 6 5 3 3 4 8 8 9 6 5 5 10 15 15 16 14 14 15 15 15 15
8 8 8 10 11 12 12 12 13 13 13 14 14 14 14 11 11 8 9 9 8 6 3 4 3 2 2 5 4 4 4 4 4 10 15 16 16 15 16 16 16 16 16
8 8 8 10 10 10 10 10 10 9 9 10 10 10 11 11 13 11 9 10 9 8 5 5 3 3 3 3 4 4 3 3 4 4 9 11 11 12 14 15 17 16 16
7 8 8 7 7 7 7 8 7 8 8 9 6 6 7 8 10 12 8 9 9 8 7 6 3 4 3 3 8 3 3 2 4 4 2 2 4 3 5 10 11 15 17
7 6 6 7 8 6 11 13 10 7 7 7 7 5 5 6 10 16 16 16 14 12 9 6 7 9 5 3 3 4 4 5 3 2 4 4 3 3 3 3 12 15 16
4 6 7 6 6 6 9 11 13 6 6 6 6 6 5 4 6 7 12 12 13 16 14 8 9 7 6 6 6 6 8 4 4 3 3 3 4 5 4 5 12 13 15
4 4 3 3 2 4 9 10 11 5 4 4 5 5 6 6 7 7 7 7 5 6 7 5 5 5 4 7 8 6 6 3 1 2 3 4 1 2 1 3 10 10 8
2 3 2 3 4 2 7 8 7 4 4 4 4 5 5 7 12 15 8 8 8 6 7 9 8 9 13 16 10 5 3 2 2 3 5 3 1 1 1 2 3 7 8
2 1 1 2 4 4 7 8 5 3 3 3 4 5 9 8 17 17 10 10 9 8 6 4 4 8 9 9 13 7 5 5 3 1 1 3 1 1 3 1 2 3 4
Wind_Direction
162 155 155 160 167 156 151 138 133 125 112 109 93 102 97 105 86 61 66 101 130 134 131 125 124 122 117 112 110 107 106 104 102 100 97 94 90 86 81 75 71 66 59
174 174 172 178 188 172 161 158 153 140 125 128 125 119 115 108 101 90 64 55 129 150 154 134 136 131 127 122 119 118 116 112 109 106 101 97 90 84 81 76 68 62 55
177 173 179 182 190 189 157 147 137 131 126 116 125 131 139 123 113 104 84 51 66 53 164 150 152 145 141 135 129 128 124 122 118 112 107 100 94 87 79 72 63 56 50
180 176 182 190 182 164 175 168 147 137 141 150 139 135 129 116 115 94 91 58 81 69 33 149 167 160 156 149 143 142 138 131 126 120 114 109 100 91 79 66 55 47 40
186 182 186 187 180 174 166 165 159 159 158 129 115 92 87 94 95 110 116 107 113 111 106 79 65 166 170 168 159 157 149 144 139 135 130 123 110 92 75 61 44 34 26
190 188 187 180 177 178 172 169 175 152 149 142 123 89 52 92 127 165 155 150 150 137 138 126 97 44 184 179 173 169 164 161 158 155 149 140 121 97 68 47 30 14 9
192 191 188 176 183 184 189 174 141 146 92 131 105 76 51 290 225 206 193 180 183 184 173 167 163 150 181 185 185 184 179 177 174 174 172 165 151 107 42 14 3 354 351
196 196 190 185 185 183 173 184 167 163 140 182 141 100 185 280 241 224 209 206 205 192 196 191 181 176 162 160 210 195 191 188 189 188 188 188 190 201 318 329 333 335 335
198 200 195 187 193 185 188 181 187 177 179 203 199 146 135 218 138 201 221 211 197 204 199 200 199 200 190 180 201 195 195 197 196 199 200 203 215 242 276 301 315 321 324
197 197 195 193 189 188 195 193 191 202 180 195 210 239 216 148 178 221 236 226 207 206 211 209 207 197 198 180 187 189 208 201 201 204 207 213 228 253 272 296 307 311 316
197 200 195 191 195 191 196 192 193 199 208 194 210 170 188 198 176 151 180 218 230 218 203 206 207 205 198 200 195 198 197 205 207 208 212 219 233 254 269 288 298 305 310
205 201 198 200 202 201 195 195 198 202 201 215 202 219 208 180 202 169 179 202 210 222 218 211 204 208 204 196 198 205 206 207 212 212 214 220 232 250 261 280 293 299 305
214 212 209 204 205 208 206 197 200 205 207 207 212 213 220 222 165 174 142 160 205 198 197 215 212 207 212 205 194 199 216 212 217 219 220 226 233 249 256 272 285 296 303
220 205 204 213 220 215 223 212 205 209 213 216 216 219 218 212 200 182 169 161 161 203 203 231 207 208 198 188 195 204 212 218 221 223 225 233 241 250 254 267 282 295 300
223 196 206 211 217 221 226 230 225 217 210 215 217 217 218 215 209 202 176 174 211 204 220 209 191 203 195 185 187 201 197 215 222 227 229 236 249 253 257 269 282 293 301
203 197 203 208 213 222 226 223 229 221 215 216 217 217 217 223 204 203 202 199 196 223 245 190 199 169 186 182 194 198 205 202 224 230 232 239 255 257 266 273 280 291 300
208 214 211 214 219 223 218 222 229 230 219 219 218 215 218 215 212 209 208 203 199 201 232 175 167 158 176 194 198 195 194 196 213 229 239 245 254 262 266 273 280 288 292
209 217 207 216 224 223 215 215 221 217 215 218 220 219 222 215 218 207 199 205 207 197 171 157 157 155 171 194 186 186 192 200 206 231 244 247 257 264 270 273 279 286 290
218 213 203 212 217 219 217 218 222 221 216 222 221 218 222 211 216 202 201 193 193 182 140 134 146 128 98 178 156 170 170 197 208 232 247 253 260 268 269 277 288 292 290
219 213 207 217 214 213 217 219 220 224 224 229 226 220 219 202 213 199 198 193 177 159 152 138 135 136 168 143 153 167 192 201 221 220 240 243 256 268 274 284 284 296 300
227 218 211 213 208 199 209 207 212 216 222 230 220 220 223 215 211 192 179 186 179 169 171 158 139 164 146 149 186 162 188 98 236 211 216 242 245 253 268 281 291 293 297
246 232 224 214 211 215 208 206 202 217 219 222 225 211 194 188 195 196 197 192 186 170 161 148 167 187 178 147 136 155 178 201 235 171 181 244 179 236 243 254 282 293 294
235 232 235 222 228 224 219 215 207 199 210 211 201 187 176 178 176 181 196 191 192 174 157 151 167 177 166 162 151 171 190 186 195 169 152 242 182 234 226 254 281 294 303
237 240 232 215 190 238 229 223 210 192 191 193 186 181 175 165 174 158 154 152 148 154 168 165 171 142 137 162 173 174 178 192 92 164 137 251 210 226 224 256 294 323 1
244 201 191 198 213 230 234 221 202 159 162 168 155 156 158 162 174 166 153 141 139 139 156 146 132 150 168 168 157 134 160 154 197 226 191 194 116 275 342 12 40 61 17
209 208 126 164 187 207 219 217 160 109 111 112 104 126 150 151 173 167 154 151 156 167 154 126 126 183 171 170 193 198 171 206 180 238 225 181 130 66 341 347 95 79 48